This demonstration page uses our WeatherBlox Daily Observations layout. Learn more.

Left ArrowRight Arrow

Hourly Observations for August 4, 2021

Temp ( °F °C ) Dew Point ( °F °C ) Humidity (%) Winds ( mph kmh ) Pressure ( in mb ) Visibility ( mi km ) Precip ( " mm )
12:56 am 00:56 Clear 65 18.3 58 14.4 78 78 SE 13 20 30.03 1017 10 16 0.00 0.00
1:56 am 01:56 Clear 64 17.8 57 13.9 78 78 SE 13 20 30.02 1017 10 16 0.00 0.00
2:56 am 02:56 Clear 64 17.8 56 13.3 75 75 SE 13 20 30.01 1016 10 16 0.00 0.00
3:56 am 03:56 Clear 62 16.7 56 13.3 80 80 SE 12 19 30.01 1016 10 16 0.00 0.00
4:56 am 04:56 Clear 62 16.7 56 13.3 80 80 SSE 16 26 29.99 1016 10 16 0.00 0.00
5:56 am 05:56 Clear 61 16.1 56 13.3 84 84 SSE 14 22 30.00 1016 10 16 0.00 0.00
6:56 am 06:56 Sunny 62 16.7 57 13.9 84 84 SSE 13 20 30.01 1016 9 14 0.00 0.00
7:56 am 07:56 Mostly Sunny 64 17.8 58 14.4 81 81 SSE 14 22 30.01 1016 10 16 0.00 0.00
8:56 am 08:56 Partly Cloudy 67 19.4 59 15 76 76 S 14 22 30.01 1016 10 16 0.00 0.00
9:56 am 09:56 Mostly Sunny 72 22.2 61 16.1 68 68 S 17 28 30.00 1016 10 16 0.00 0.00
10:56 am 10:56 Sunny 76 24.4 63 17.2 64 64 S 18 30 29.98 1015 10 16 0.00 0.00
11:56 am 11:56 Sunny 79 26.1 63 17.2 58 58 S 18 30 29.98 1015 10 16 0.00 0.00
12:56 pm 12:56 Sunny 81 27.2 64 17.8 57 57 SSW 16 26 29.97 1015 10 16 0.00 0.00
1:56 pm 13:56 Sunny 85 29.4 66 18.9 53 53 SSW 16 26 29.96 1014 10 16 0.00 0.00
2:56 pm 14:56 Sunny 87 30.6 66 18.9 50 50 SW 13 20 29.94 1014 10 16 0.00 0.00
3:56 pm 15:56 Sunny 90 32.2 67 19.4 47 47 SW 7 11 29.93 1014 10 16 0.00 0.00
4:56 pm 16:56 Sunny 90 32.2 66 18.9 45 45 W 8 13 29.91 1013 10 16 0.00 0.00
5:56 pm 17:56 Sunny 90 32.2 64 17.8 42 42 WSW 8 13 29.92 1013 10 16 0.00 0.00
6:56 pm 18:56 Sunny 86 30 70 21.1 59 59 N 3 6 29.93 1014 8 13 0.00 0.00
7:56 pm 19:56 Partly Cloudy 78 25.6 63 17.2 60 60 NW 22 35 29.96 1015 9 14 0.00 0.00
8:24 pm 20:24 Partly Cloudy with Nearby Thunderstorms 75 24 64 18 69 69 NW 17 28 29.91 1013 10 16 0.00 0.00
8:52 pm 20:52 Clear with Nearby Thunderstorms 73 23 61 16 65 65 NW 18 30 29.92 1013 10 16 0.00 0.00
8:53 pm 20:53 Clear with Nearby Thunderstorms 73 22.8 59 15 62 62 NW 17 28 29.97 1015 10 16 0.00 0.00
9:13 pm 21:13 Partly Cloudy 73 23 57 14 57 57 NW 18 30 29.91 1013 10 16 0.00 0.00
9:56 pm 21:56 Mostly Cloudy with Light Rain 69 20.6 62 16.7 78 78 NNW 10 17 29.97 1015 10 16 0.00 0.00
10:56 pm 22:56 Mostly Cloudy 67 19.4 63 17.2 87 87 SSW 9 15 30.00 1016 10 16 0.02 0.51
11:56 pm 23:56 Mostly Cloudy 66 18.9 64 17.8 93 93 E 3 6 30.01 1016 10 16 0.00 0.00

Powered by AerisWeather